User: anonymous   Login
Location: Unspecified
(0.0000°N, 0.0000°E)
Time: 07:34:59
(UTC+00:00)
Language:

METEOR-M - Orbit

View from above orbital plane
View from above orbital plane
View from above satellite
View from above satellite

Ground track
Ground track

The orbit data is extracted from the following two-line orbital elements,

1 35865U 09049A   14304.75857572  .00000149  00000-0  86729-4 0   358
2 35865 098.5340 347.9209 0003387 075.1920 034.3428 14.21944292265743
Epoch (UTC): 31 October 2014 18:12:20
Eccentricity: 0.0003387
inclination: 98.5340°
perigee height: 816 km
apogee height: 821 km
right ascension of ascending node: 347.9209°
argument of perigee: 75.1920°
revolutions per day: 14.21944292
mean anomaly at epoch: 34.3428°
orbit number at epoch: 26574

The dashed part of the orbit path shows where the satellite is in the earth's shadow,  

DLR